Location: West Cummington
(42.4920°N, 72.9680°W)
Time: 09:43:57
(UTC-04:00)

Cosmos 2221 - Visible Passes

Search period start: 16 April 2014 00:00
Search period end: 26 April 2014 00:00
Orbit: 600 x 622 km, 82.5° (Epoch: 16 April)

Date Brightness Start Highest point End Pass type
(mag) Time Alt. Az. Time Alt. Az. Time Alt. Az.
16 Apr 5.1 02:17:07 10° NNE 02:19:46 16° ENE 02:19:51 16° ENE visible
16 Apr 3.2 03:53:33 10° NNW 03:56:49 40° NW 03:56:49 40° NW visible
17 Apr 4.5 02:31:13 10° NNE 02:34:21 25° ENE 02:34:21 25° ENE visible
17 Apr 4.0 04:08:51 10° NNW 04:11:19 23° WNW 04:11:19 23° WNW visible
18 Apr 3.9 02:45:44 10° N 02:48:53 37° NE 02:48:53 37° NE visible
18 Apr 4.6 04:24:36 10° NW 04:25:51 14° WNW 04:25:51 14° WNW visible
19 Apr 3.6 03:00:30 10° N 03:03:26 42° N 03:03:26 42° N visible
20 Apr 5.3 01:39:34 10° NE 01:41:03 13° ENE 01:41:03 13° ENE visible
20 Apr 3.8 03:15:28 10° NNW 03:18:01 33° NNW 03:18:01 33° NNW visible
21 Apr 4.9 01:53:23 10° NNE 01:55:39 20° NE 01:55:39 20° NE visible
21 Apr 4.2 03:30:40 10° NNW 03:32:38 22° NW 03:32:38 22° NW visible
22 Apr 4.5 02:07:47 10° N 02:10:17 27° NE 02:10:17 27° NE visible
22 Apr 4.7 03:46:13 10° NW 03:47:15 14° NW 03:47:15 14° NW visible
23 Apr 4.2 02:22:28 10° N 02:24:55 32° N 02:24:55 32° N visible
24 Apr 5.5 01:02:19 10° NE 01:02:36 10° NE 01:02:36 10° NE visible
24 Apr 4.1 02:37:21 10° NNW 02:39:35 29° NNW 02:39:35 29° NNW visible
25 Apr 5.1 01:15:35 10° NNE 01:17:16 16° NE 01:17:16 16° NE visible
25 Apr 4.4 02:52:28 10° NNW 02:54:15 22° NW 02:54:15 22° NW visible
